Flag for Sweden Weather past 2 weeks in Västerås, Sweden

Now
66 °F

Passing clouds.


Feels Like: 66 °F
Forecast: 54 / 62 °F
Wind: 13 mph from East

Location: Vasteras / Hasslo

Current Time: Jul 28, 2015 at 5:37:55 PM

Latest Report: Jul 28, 2015 at 5:20 PM


Visibility: N/A

Pressure: 29.53 "Hg

Humidity: 68%

Dew point: 55 °F

Location of VästeråsLocation

Historic Weather in Västerås — Graph

°F

Västerås temperature yesterday

Maximum temperature yesterday: 63 °F (at 10:20 AM)
Minimum temperature yesterday: 55 °F (at 12:20 AM)
Average temperature yesterday: 59 °F

Past Weeks' High & Low Weather Summary

 TemperatureHumidityPressure
High72 °F (Jul 14, 3:20 PM)100% (Jul 14, 12:50 AM)29.98 "Hg (Jul 14, 12:50 AM)
Low46 °F (Jul 14, 3:20 AM)40% (Jul 18, 4:50 PM)29.33 "Hg (Jul 26, 11:50 AM)
Average60 °F77%29.71 "Hg
* Reported Jul 13 4:20 PM — Jul 28 4:20 PM, Västerås, Weather by CustomWeather, © 2015

Note: Actual official high and low records may vary slightly from our data, if they occured in-between our weather recording intervals... More about our weather records

Advertising

Västerås weather history for previous 24 hours

 ConditionsComfort  
Time TempWeatherWind HumidityBarometerVisibility
4:20 PM
Tue, Jul 28
66 °FPassing clouds.12 mph68%29.53 "HgN/A
3:50 PM66 °FPassing clouds.15 mph68%29.53 "HgN/A
3:20 PM66 °FPassing clouds.14 mph68%29.56 "HgN/A
2:50 PM64 °FPassing clouds.13 mph73%29.56 "HgN/A
2:20 PM64 °FPassing clouds.13 mph73%29.56 "HgN/A
1:50 PM63 °FPassing clouds.14 mph73%29.56 "HgN/A
1:20 PM63 °FPassing clouds.13 mph77%29.56 "HgN/A
12:50 PM61 °FPassing clouds.12 mph83%29.56 "HgN/A
12:20 PM61 °FPassing clouds.12 mph83%29.56 "HgN/A
11:50 AM61 °FPassing clouds.12 mph83%29.56 "HgN/A
11:20 AM59 °FScattered clouds.9 mph82%29.59 "HgN/A
10:50 AM57 °FPartly sunny.8 mph88%29.59 "HgN/A
10:20 AM57 °FSunny.8 mph88%29.59 "Hg10 mi
9:50 AM55 °FPassing clouds.7 mph94%29.59 "HgN/A
9:20 AM55 °FLight rain. Partly sunny.6 mph94%29.59 "HgN/A
8:50 AM55 °FLight rain. Passing clouds.6 mph94%29.59 "HgN/A
8:20 AM55 °FLight rain. Partly sunny.5 mph94%29.62 "HgN/A
7:50 AM55 °FDrizzle. Partly sunny.6 mph94%29.62 "HgN/A
7:20 AM55 °FDrizzle. Partly sunny.3 mph88%29.62 "HgN/A
6:50 AM55 °FDrizzle. Partly sunny.6 mph88%29.62 "HgN/A
6:20 AM55 °FDrizzle. Partly sunny.3 mph94%29.62 "HgN/A
5:50 AM55 °FOvercast.3 mph94%29.59 "HgN/A
5:20 AM54 °FLight rain. Overcast.2 mph94%29.62 "HgN/A
4:50 AM54 °FOvercast.3 mph94%29.62 "HgN/A
4:20 AM55 °FPassing clouds.2 mph88%29.62 "HgN/A
3:50 AM54 °FPassing clouds.2 mph94%29.62 "HgN/A
3:20 AM54 °FPassing clouds.2 mph94%29.62 "HgN/A
2:50 AM52 °FLight rain. Passing clouds.3 mph100%29.62 "HgN/A
2:20 AM52 °FPassing clouds.2 mph100%29.62 "HgN/A
1:50 AM54 °FPassing clouds.3 mph94%29.62 "HgN/A
1:20 AM52 °FPassing clouds.3 mph100%29.62 "HgN/A
12:50 AM54 °FPassing clouds.3 mph94%29.62 "HgN/A
11:20 PM
Mon, Jul 27
55 °FPassing clouds.3 mph88%29.65 "HgN/A
10:50 PM55 °FPassing clouds.7 mph88%29.65 "HgN/A
10:20 PM55 °FLight rain. Passing clouds.9 mph94%29.65 "HgN/A
9:50 PM57 °FDrizzle. Partly sunny.10 mph88%29.65 "HgN/A
9:20 PM57 °FPassing clouds.10 mph82%29.62 "HgN/A
8:50 PM59 °FScattered clouds.5 mph77%29.62 "HgN/A
8:20 PM59 °FSunny.12 mph77%29.62 "Hg10 mi
7:50 PM61 °FPassing clouds.13 mph68%29.62 "HgN/A
7:20 PM63 °FPassing clouds.10 mph64%29.62 "HgN/A
6:50 PM63 °FSunny.9 mph59%29.62 "Hg10 mi
6:20 PM63 °FSunny.9 mph59%29.62 "Hg10 mi
5:50 PM63 °FPassing clouds.10 mph56%29.59 "HgN/A
5:20 PM63 °FPassing clouds.12 mph56%29.59 "HgN/A
Weather by CustomWeather, © 2015

See weather overviewHow to use our weather pages